Flag for U.S.A. Weather past 2 weeks in Rapid City, South Dakota, U.S.A.

Now
68 °F

Clear.


Feels Like: 68 °F
Forecast: 62 / 92 °F
Wind: 6 mph from Southwest

Location: Ellsworth Air Force Base

Current Time: Aug 1, 2015 at 12:27:14 AM

Latest Report: Jul 31, 2015 at 11:58 PM


Visibility: 10 mi

Pressure: 30.04 "Hg (26.81 "Hg at 977m altitude)

Humidity: 62%

Dew point: 55 °F

Location of Rapid CityLocation

Historic Weather in Rapid City — Graph

°F

Rapid City temperature yesterday

Maximum temperature yesterday: 88 °F (at 4:58 PM)
Minimum temperature yesterday: 60 °F (at 3:58 AM)
Average temperature yesterday: 75 °F

Past Weeks' High & Low Weather Summary

 TemperatureHumidityPressure
High95 °F (Jul 23, 3:58 PM)96% (Jul 27, 4:58 AM)30.21 "Hg (Jul 27, 4:58 AM)
Low53 °F (Jul 29, 4:58 AM)20% (Jul 30, 2:58 PM)29.55 "Hg (Jul 27, 3:58 PM)
Average73 °F56%29.92 "Hg
* Reported Jul 16 10:58 PM — Jul 31 10:58 PM, Rapid City, Weather by CustomWeather, © 2015

Note: Actual official high and low records may vary slightly from our data, if they occured in-between our weather recording intervals... More about our weather records

Advertising

Rapid City weather history for previous 24 hours

 ConditionsComfort  
Time TempWeatherWind HumidityBarometerVisibility
10:58 PM
Fri, Jul 31
71 °FClear.1 mph53%30.05 "Hg10 mi
9:58 PM72 °FClear.5 mph53%30.05 "Hg10 mi
8:58 PM75 °FClear.5 mph48%30.04 "Hg10 mi
7:58 PM81 °FSunny.7 mph37%30.04 "Hg10 mi
6:58 PM85 °FSunny.10 mph30%30.03 "Hg10 mi
5:58 PM87 °FSunny.8 mph27%30.04 "Hg10 mi
4:58 PM88 °FSunny.8 mph28%30.06 "Hg10 mi
3:58 PM87 °FSunny.8 mph26%30.09 "Hg10 mi
2:58 PM87 °FSunny.5 mph28%30.10 "Hg10 mi
1:58 PM87 °FSunny.9 mph31%30.12 "Hg10 mi
12:58 PM85 °FSunny.9 mph28%30.15 "Hg10 mi
11:58 AM83 °FSunny.7 mph33%30.16 "Hg10 mi
10:58 AM80 °FSunny.5 mph37%30.17 "Hg10 mi
9:58 AM77 °FSunny.8 mph40%30.17 "Hg10 mi
8:58 AM72 °FSunny.9 mph47%30.18 "Hg10 mi
7:58 AM66 °FSunny.9 mph56%30.17 "Hg10 mi
6:58 AM65 °FSunny.1 mph59%30.16 "Hg10 mi
5:58 AM61 °FSunny.7 mph62%30.15 "Hg10 mi
4:58 AM62 °FClear.6 mph61%30.15 "Hg10 mi
3:58 AM60 °FClear.6 mph67%30.15 "Hg10 mi
2:58 AM65 °FClear.No wind55%30.16 "Hg10 mi
1:58 AM67 °FClear.2 mph47%30.16 "Hg10 mi
12:58 AM61 °FClear.6 mph69%30.16 "Hg10 mi
Weather by CustomWeather, © 2015

See weather overviewHow to use our weather pages